Weather History for Berlin, NH

Change the Weather History Date:

Thursday, January 30, 2014

  Actual Average Record
Temperature  
Mean Temperature 14 °F -  
Max Temperature 26 °F 24 °F 55 °F (2013)
Min Temperature 3 °F 0 °F -20 °F (1999)
Degree Days  
Heating Degree Days 50    
Moisture  
Dew Point 2 °F    
Average Humidity 62    
Maximum Humidity 80    
Minimum Humidity 37    
Precipitation  
Precipitation 0.00 in - - ()
Sea Level Pressure  
Sea Level Pressure 30.22 in    
Wind  
Wind Speed 2 mph (SSE)    
Max Wind Speed 7 mph    
Max Gust Speed -    
Visibility 10 miles    
Events      
Averages and records for this station are not official NWS values.
T = Trace of Precipitation, MM = Missing Value Source: NWS Daily Summary

Daily Weather History Graph

Daily Weather History Graph

Search for Another Location

Airport:

Trip Planner

Search our weather history database for the weather conditions in past years. The results will help you decide how hot, cold, wet, or windy it might be!

Date:

Astronomy

Jan. 30, 2014 Rise Set
Actual Time 7:05 AM EST 4:50 PM EST
Civil Twilight 6:34 AM EST 5:22 PM EST
Nautical Twilight 5:59 AM EST 5:57 PM EST
Astronomical Twilight 5:25 AM EST 6:31 PM EST
Moon 6:27 AM EST (1/30) 5:01 PM EST (1/30)
Length of Visible Light 10h 47m
Length of Day
9h 45m
Waning Crescent, 0% of the Moon is Illuminated
Jan 30
Waning Crescent
Jan 30
New
Feb 6
First Quarter
Feb 14
Full
Feb 22
Last Quarter

Hourly Weather History & Observations

Time (EST) Temp. Windchill Dew Point Humidity Pressure Visibility Wind Dir Wind Speed Gust Speed Precip Events Conditions
12:52 AM 10.0 °F - -2.0 °F 58% 30.12 in 10.0 mi North - - N/A   Overcast
1:52 AM 9.0 °F - -2.0 °F 61% 30.14 in 10.0 mi Calm Calm - N/A   Scattered Clouds
2:52 AM 10.0 °F 1.8 °F -0.9 °F 61% 30.16 in 10.0 mi NNW 4.6 mph - N/A   Overcast
3:52 AM 10.9 °F - 1.9 °F 67% 30.19 in 10.0 mi Calm Calm - N/A   Overcast
4:52 AM 12.0 °F 4.1 °F 3.0 °F 67% 30.22 in 10.0 mi NE 4.6 mph - N/A   Overcast
5:52 AM 12.0 °F - 1.9 °F 64% 30.26 in 10.0 mi Calm Calm - N/A   Overcast
6:09 AM 12.0 °F 5.9 °F 1.9 °F 64% 30.18 in 10.0 mi Variable 3.5 mph - N/A   Overcast
6:41 AM 10.9 °F 2.9 °F 1.9 °F 67% 30.19 in 10.0 mi SSW 4.6 mph - N/A   Overcast
6:52 AM 10.0 °F - 1.9 °F 70% 30.28 in 10.0 mi Calm Calm - N/A   Overcast
7:52 AM 7.0 °F - 1.0 °F 77% 30.32 in 10.0 mi Calm Calm - N/A   Scattered Clouds
8:52 AM 12.0 °F - 3.0 °F 67% 30.34 in 10.0 mi Calm Calm - N/A   Scattered Clouds
9:10 AM 14.0 °F - 3.0 °F 62% 30.27 in 10.0 mi Calm Calm - N/A   Mostly Cloudy
9:39 AM 15.1 °F 5.2 °F 3.9 °F 61% 30.28 in 10.0 mi SSW 6.9 mph - N/A   Overcast
9:52 AM 16.0 °F 8.8 °F 3.9 °F 59% 30.36 in 10.0 mi Variable 4.6 mph - N/A   Overcast
10:52 AM 19.0 °F - 3.9 °F 52% 30.34 in 10.0 mi Calm Calm - N/A   Partly Cloudy
11:52 AM 21.0 °F 16.2 °F 3.9 °F 48% 30.30 in 10.0 mi Variable 3.5 mph - N/A   Clear
12:52 PM 23.0 °F 17.0 °F 3.9 °F 44% 30.27 in 10.0 mi SE 4.6 mph - N/A   Clear
1:52 PM 24.1 °F 16.0 °F 3.9 °F 42% 30.25 in 10.0 mi ESE 6.9 mph - N/A   Clear
2:52 PM 26.1 °F 20.5 °F 3.9 °F 39% 30.22 in 10.0 mi South 4.6 mph - N/A   Clear
3:52 PM 25.0 °F 17.1 °F 1.9 °F 37% 30.22 in 10.0 mi SSE 6.9 mph - N/A   Clear
4:52 PM 21.0 °F 13.4 °F 1.9 °F 44% 30.21 in 10.0 mi SE 5.8 mph - N/A   Clear
5:52 PM 12.9 °F - 1.9 °F 62% 30.20 in 10.0 mi Calm Calm - N/A   Clear
6:52 PM 8.1 °F - 1.0 °F 73% 30.20 in 10.0 mi Calm Calm - N/A   Clear
7:52 PM 3.9 °F - -2.0 °F 76% 30.19 in 10.0 mi Calm Calm - N/A   Clear
8:52 PM 3.9 °F - -2.0 °F 76% 30.16 in 10.0 mi Calm Calm - N/A   Clear
9:52 PM 3.0 °F - -2.0 °F 80% 30.14 in 10.0 mi Calm Calm - N/A   Clear
10:52 PM 5.0 °F - -0.0 °F 80% 30.10 in 10.0 mi Calm Calm - N/A   Clear
11:52 PM 8.1 °F -2.0 °F 1.9 °F 76% 30.03 in 10.0 mi North 5.8 mph - N/A   Clear